Location: Edinburgh
(55.9500°N, 3.1600°W)
Time: 17:06:16
(UTC+01:00)

ISS - Pass Details

Date: 12 October 2017
Orbit: 401 x 408 km, 51.6° (Epoch: 21 October)

Event Time Altitude Azimuth Distance (km) Brightness Sun altitude
Rises 19:55:12 0° 272° (W) 2,327 2.0 -14.2°
Reaches altitude 10° 19:58:04 10° 244° (WSW) 1,466 -0.1 -14.6°
Maximum altitude 19:59:46 14° 213° (SSW) 1,269 -1.0 -14.8°
Drops below altitude 10° 20:01:29 10° 181° (S) 1,464 -1.1 -15.1°
Enters shadow 20:02:29 - 169° (SSE) 1,720 -0.9 -15.2°
